Weather History for Langdon, ND

Change the Weather History Date:

Thursday, February 14, 2013

  Actual Average (KDVL) Record (KDVL)
Temperature  
Mean Temperature 8 °F -  
Max Temperature 19 °F 21 °F 46 °F (1983)
Min Temperature -4 °F 0 °F -25 °F (1970)
Degree Days  
Heating Degree Days 58    
Moisture  
Dew Point 3 °F    
Average Humidity 86    
Maximum Humidity 93    
Minimum Humidity 73    
Precipitation  
Precipitation 0.00 in - - ()
Sea Level Pressure  
Sea Level Pressure 30.05 in    
Wind  
Wind Speed 13 mph (NNW)    
Max Wind Speed 20 mph    
Max Gust Speed 22 mph    
Visibility 10 miles    
Events      
Averages and records for this station are not official NWS values.
T = Trace of Precipitation, MM = Missing Value Source: NWS Daily Summary

Daily Weather History Graph

Daily Weather History Graph

Search for Another Location

Airport:

Trip Planner

Search our weather history database for the weather conditions in past years. The results will help you decide how hot, cold, wet, or windy it might be!

Date:

Astronomy

Feb. 14, 2013 Rise Set
Actual Time 7:42 AM CST 5:53 PM CST
Civil Twilight 7:10 AM CST 6:26 PM CST
Nautical Twilight 6:33 AM CST 7:03 PM CST
Astronomical Twilight 5:56 AM CST 7:39 PM CST
Moon 9:17 AM CST (2/14) 11:29 PM CST (2/14)
Length of Visible Light 11h 15m
Length of Day
10h 10m
Waxing Crescent, 22% of the Moon is Illuminated
Feb 14
Waxing Crescent
Feb 17
First Quarter
Feb 25
Full
Mar 4
Last Quarter
Mar 11
New

Hourly Weather History & Observations

Time (CST) Temp. Windchill Dew Point Humidity Pressure Visibility Wind Dir Wind Speed Gust Speed Precip Events Conditions
12:15 AM 19.4 °F 6.0 °F 15.8 °F 86% 29.77 in 10.0 mi NE 13.8 mph - N/A   Overcast
12:35 AM 17.6 °F 3.2 °F 14.0 °F 86% 29.78 in 10.0 mi NE 15.0 mph - N/A   Overcast
12:55 AM 15.8 °F 0.9 °F 14.0 °F 93% 29.78 in 10.0 mi NE 15.0 mph - N/A   Overcast
1:15 AM 15.8 °F 0.9 °F 14.0 °F 93% 29.79 in 10.0 mi NE 15.0 mph - N/A   Overcast
1:35 AM 15.8 °F 0.9 °F 14.0 °F 93% 29.80 in 10.0 mi NE 15.0 mph - N/A   Overcast
1:55 AM 15.8 °F 1.4 °F 14.0 °F 93% 29.81 in 10.0 mi NE 13.8 mph - N/A   Overcast
2:15 AM 15.8 °F 0.3 °F 12.2 °F 86% 29.82 in 10.0 mi NNE 16.1 mph - N/A   Overcast
2:35 AM 15.8 °F 1.4 °F 10.4 °F 79% 29.83 in 10.0 mi NNE 13.8 mph - N/A   Overcast
2:55 AM 14.0 °F -1.4 °F 10.4 °F 86% 29.84 in 10.0 mi NE 15.0 mph 20.7 mph N/A   Overcast
3:15 AM 14.0 °F -2.5 °F 8.6 °F 79% 29.84 in 10.0 mi NE 17.3 mph - N/A   Overcast
3:35 AM 14.0 °F -2.5 °F 8.6 °F 79% 29.84 in 10.0 mi NNE 17.3 mph 21.9 mph N/A   Overcast
3:55 AM 12.2 °F -4.8 °F 8.6 °F 85% 29.85 in 10.0 mi NNE 17.3 mph - N/A   Overcast
4:15 AM 12.2 °F -4.8 °F 8.6 °F 85% 29.86 in 10.0 mi NNE 17.3 mph - N/A   Overcast
4:35 AM 10.4 °F -7.2 °F 8.6 °F 92% 29.87 in 10.0 mi NNE 17.3 mph - N/A   Overcast
4:55 AM 10.4 °F -6.6 °F 6.8 °F 85% 29.89 in 10.0 mi NNE 16.1 mph - N/A   Overcast
5:15 AM 10.4 °F -5.4 °F 6.8 °F 85% 29.89 in 10.0 mi NNE 13.8 mph - N/A   Overcast
5:35 AM 8.6 °F -8.9 °F 6.8 °F 92% 29.91 in 10.0 mi NNE 16.1 mph - N/A   Overcast
5:55 AM 8.6 °F -6.3 °F 5.0 °F 85% 29.92 in 10.0 mi North 11.5 mph - N/A   Overcast
6:15 AM 6.8 °F -11.3 °F 5.0 °F 92% 29.94 in 10.0 mi North 16.1 mph - N/A   Mostly Cloudy
6:35 AM 6.8 °F -9.3 °F 5.0 °F 92% 29.95 in 10.0 mi North 12.7 mph - N/A   Scattered Clouds
6:55 AM 5.0 °F -10.8 °F 1.4 °F 85% 29.97 in 10.0 mi North 11.5 mph - N/A   Mostly Cloudy
7:15 AM 5.0 °F -13.6 °F 1.4 °F 85% 29.98 in 10.0 mi NNE 16.1 mph - N/A   Mostly Cloudy
7:35 AM 1.4 °F -16.1 °F -0.4 °F 92% 29.99 in 10.0 mi North 12.7 mph - N/A   Mostly Cloudy
7:55 AM 1.4 °F -16.1 °F -0.4 °F 92% 30.00 in 10.0 mi North 12.7 mph - N/A   Mostly Cloudy
8:15 AM -0.4 °F -17.6 °F -2.2 °F 92% 30.02 in 9.0 mi North 11.5 mph - N/A   Mostly Cloudy
8:35 AM -0.4 °F -18.4 °F -2.2 °F 92% 30.03 in 10.0 mi North 12.7 mph - N/A   Scattered Clouds
8:55 AM -0.4 °F -19.2 °F -2.2 °F 92% 30.04 in 10.0 mi North 13.8 mph - N/A   Clear
9:15 AM -0.4 °F -19.2 °F -2.2 °F 92% 30.05 in 10.0 mi North 13.8 mph - N/A   Clear
9:35 AM -0.4 °F -19.9 °F -2.2 °F 92% 30.06 in 10.0 mi NNW 15.0 mph - N/A   Clear
9:55 AM 1.4 °F -18.2 °F -2.2 °F 85% 30.08 in 10.0 mi NNW 16.1 mph - N/A   Clear
10:15 AM 1.4 °F -16.1 °F -2.2 °F 85% 30.09 in 10.0 mi NNW 12.7 mph - N/A   Clear
10:35 AM 1.4 °F -16.9 °F -0.4 °F 92% 30.09 in 10.0 mi NNW 13.8 mph - N/A   Clear
10:55 AM 1.4 °F -16.1 °F -0.4 °F 92% 30.11 in 10.0 mi NNW 12.7 mph - N/A   Partly Cloudy
11:15 AM 3.2 °F -13.9 °F -0.4 °F 85% 30.11 in 10.0 mi NNW 12.7 mph - N/A   Scattered Clouds
11:35 AM 5.0 °F -11.6 °F -0.4 °F 78% 30.11 in 10.0 mi NNW 12.7 mph - N/A   Clear
11:55 AM 6.8 °F -10.0 °F 1.4 °F 79% 30.11 in 10.0 mi NNW 13.8 mph - N/A   Scattered Clouds
12:15 PM 6.8 °F -8.6 °F 1.4 °F 79% 30.11 in 10.0 mi NNW 11.5 mph - N/A   Mostly Cloudy
12:35 PM 6.8 °F -7.8 °F 1.4 °F 79% 30.11 in 10.0 mi NNW 10.4 mph - N/A   Mostly Cloudy
12:55 PM 6.8 °F -10.0 °F 1.4 °F 79% 30.11 in 10.0 mi NW 13.8 mph - N/A   Partly Cloudy
1:15 PM 8.6 °F -10.5 °F 1.4 °F 73% 30.11 in 10.0 mi NW 19.6 mph - N/A   Partly Cloudy
1:35 PM 8.6 °F -8.9 °F 3.2 °F 79% 30.12 in 10.0 mi NW 16.1 mph - N/A   Mostly Cloudy
1:55 PM 8.6 °F -7.7 °F 3.2 °F 79% 30.13 in 10.0 mi NW 13.8 mph - N/A   Scattered Clouds
2:15 PM 10.4 °F -7.2 °F 5.0 °F 79% 30.13 in 10.0 mi NW 17.3 mph - N/A   Partly Cloudy
2:35 PM 10.4 °F -4.8 °F 5.0 °F 79% 30.13 in 10.0 mi NW 12.7 mph - N/A   Mostly Cloudy
2:55 PM 10.4 °F -4.1 °F 5.0 °F 79% 30.14 in 10.0 mi NW 11.5 mph - N/A   Mostly Cloudy
3:15 PM 10.4 °F -4.1 °F 6.8 °F 85% 30.14 in 10.0 mi WNW 11.5 mph - N/A   Mostly Cloudy
3:35 PM 10.4 °F -2.4 °F 6.8 °F 85% 30.15 in 10.0 mi WNW 9.2 mph - N/A   Overcast
3:55 PM 10.4 °F -4.1 °F 6.8 °F 85% 30.15 in 10.0 mi NW 11.5 mph - N/A   Mostly Cloudy
4:15 PM 10.4 °F -2.4 °F 6.8 °F 85% 30.16 in 10.0 mi NW 9.2 mph - N/A   Mostly Cloudy
4:35 PM 10.4 °F -3.3 °F 6.8 °F 85% 30.16 in 10.0 mi NW 10.4 mph - N/A   Overcast
4:55 PM 10.4 °F -4.8 °F 6.8 °F 85% 30.16 in 10.0 mi NW 12.7 mph - N/A   Overcast
5:15 PM 10.4 °F -3.3 °F 6.8 °F 85% 30.17 in 10.0 mi NW 10.4 mph - N/A   Overcast
5:35 PM 10.4 °F -3.3 °F 6.8 °F 85% 30.17 in 10.0 mi WNW 10.4 mph - N/A   Overcast
5:55 PM 10.4 °F -4.1 °F 6.8 °F 85% 30.17 in 10.0 mi NW 11.5 mph - N/A   Overcast
6:15 PM 10.4 °F -2.4 °F 6.8 °F 85% 30.18 in 10.0 mi WNW 9.2 mph - N/A   Overcast
6:35 PM 10.4 °F -1.5 °F 5.0 °F 79% 30.18 in 10.0 mi NW 8.1 mph - N/A   Mostly Cloudy
6:55 PM 6.8 °F -5.9 °F 1.4 °F 79% 30.18 in 10.0 mi WNW 8.1 mph - N/A   Partly Cloudy
7:15 PM 5.0 °F -8.1 °F 1.4 °F 85% 30.18 in 10.0 mi NW 8.1 mph - N/A   Clear
7:35 PM 3.2 °F -9.1 °F -0.4 °F 85% 30.18 in 10.0 mi WNW 6.9 mph - N/A   Clear
7:55 PM 1.4 °F -11.3 °F -0.4 °F 92% 30.18 in 10.0 mi WNW 6.9 mph - N/A   Clear
8:15 PM -0.4 °F -13.4 °F -2.2 °F 92% 30.18 in 10.0 mi NW 6.9 mph - N/A   Clear
8:35 PM -0.4 °F -8.3 °F -2.2 °F 92% 30.18 in 10.0 mi WNW 3.5 mph - N/A   Clear
8:55 PM -0.4 °F -12.0 °F -2.2 °F 92% 30.18 in 10.0 mi NW 5.8 mph - N/A   Clear
9:15 PM -0.4 °F -15.7 °F -2.2 °F 92% 30.18 in 10.0 mi NW 9.2 mph - N/A   Clear
9:35 PM 3.2 °F -12.2 °F -0.4 °F 85% 30.18 in 10.0 mi NW 10.4 mph - N/A   Clear
9:55 PM 1.4 °F -12.5 °F -0.4 °F 92% 30.18 in 10.0 mi NW 8.1 mph - N/A   Clear
10:15 PM -0.4 °F -15.7 °F -2.2 °F 92% 30.18 in 10.0 mi NW 9.2 mph - N/A   Clear
10:35 PM -0.4 °F -14.7 °F -2.2 °F 92% 30.18 in 10.0 mi NW 8.1 mph - N/A   Clear
10:55 PM -2.2 °F -15.6 °F -5.8 °F 85% 30.19 in 10.0 mi North 6.9 mph - N/A   Clear
11:15 PM -2.2 °F -16.8 °F -7.6 °F 78% 30.19 in 10.0 mi North 8.1 mph - N/A   Clear
11:35 PM -4.0 °F -12.4 °F -7.6 °F 85% 30.20 in 10.0 mi NNW 3.5 mph - N/A   Clear
11:55 PM -2.2 °F -14.2 °F -5.8 °F 85% 30.20 in 10.0 mi NNW 5.8 mph - N/A   Clear